Voltar ao catálogo

KUIPER-00564

AtivoComunicaçõesLEO
NORAD 69625·PAYLOAD·🇺🇸 United States

Lançado Jun 17, 2026 de Guiana Space Centre

Loading…

Próximas Passagens (próximas 24 horas)

TLE

AtualizadoSource: CelesTrak SupGP

Época: Sep 14, 2026, 19:13 UTC

1 69625C 26140AK  26257.80079861  .00001693  00000+0  23987-3 0  2579
2 69625  51.8979 334.2736 0001957 106.2580 135.5611 14.76573921    19

Acompanhe KUIPER-00564 em tempo real com AllMySat

Download on the App Store